Time,TemperatureF,DewpointF,PressureIn,WindDirection,WindDirectionDegrees,WindSpeedMPH,WindSpeedGustMPH,Humidity,HourlyPrecipIn,Conditions,Clouds,dailyrainin,SoftwareType,DateUTC
2013-09-09 00:01:00,56.9,50.5,30.03,SSE,159,0.0,4.0,79,0.00,,CLR,0.00,VWS V13.01,2013-09-09 04:01:00,
2013-09-09 00:02:00,57.0,50.6,30.04,SSE,159,0.0,0.0,79,0.00,,CLR,0.00,VWS V13.01,2013-09-09 04:02:00,
2013-09-09 00:03:00,57.0,50.6,30.04,SSE,159,0.0,1.0,79,0.00,,CLR,0.00,VWS V13.01,2013-09-09 04:03:00,
2013-09-09 00:08:00,57.0,50.6,30.04,SSE,156,0.0,4.0,79,0.00,,CLR,0.00,VWS V13.01,2013-09-09 04:08:00,
2013-09-09 00:13:00,57.0,50.6,30.04,SSE,156,0.0,4.0,79,0.00,,CLR,0.00,VWS V13.01,2013-09-09 04:13:00,
2013-09-09 00:18:00,57.0,50.6,30.04,SSE,155,0.0,4.0,79,0.00,,CLR,0.00,VWS V13.01,2013-09-09 04:18:00,
2013-09-09 00:23:00,56.9,50.5,30.04,SSE,160,0.0,4.0,79,0.00,,CLR,0.00,VWS V13.01,2013-09-09 04:23:00,
2013-09-09 00:28:00,56.8,50.4,30.04,SSE,160,0.0,4.0,79,0.00,,CLR,0.00,VWS V13.01,2013-09-09 04:28:00,
2013-09-09 00:33:00,56.7,50.3,30.04,South,169,0.0,2.0,79,0.00,,CLR,0.00,VWS V13.01,2013-09-09 04:33:00,
2013-09-09 00:38:00,56.5,50.1,30.04,SSE,167,0.0,2.0,79,0.00,,CLR,0.00,VWS V13.01,2013-09-09 04:38:00,
2013-09-09 00:43:00,56.4,50.3,30.04,SSE,159,0.0,3.0,80,0.00,,CLR,0.00,VWS V13.01,2013-09-09 04:43:00,
2013-09-09 00:48:00,56.4,50.3,30.04,SSE,161,0.0,5.0,80,0.00,,CLR,0.00,VWS V13.01,2013-09-09 04:48:00,
2013-09-09 00:53:00,56.4,50.3,30.04,SSE,151,0.0,5.0,80,0.00,,CLR,0.00,VWS V13.01,2013-09-09 04:53:00,
2013-09-09 00:58:00,56.4,50.3,30.04,SE,136,0.0,5.0,80,0.00,,CLR,0.00,VWS V13.01,2013-09-09 04:58:00,
2013-09-09 01:03:00,56.3,49.9,30.04,SE,136,0.0,1.0,79,0.00,,CLR,0.00,VWS V13.01,2013-09-09 05:03:00,
2013-09-09 01:08:00,56.2,50.1,30.04,SE,136,0.0,1.0,80,0.00,,CLR,0.00,VWS V13.01,2013-09-09 05:08:00,
2013-09-09 01:13:00,56.0,49.9,30.04,SE,136,0.0,1.0,80,0.00,,CLR,0.00,VWS V13.01,2013-09-09 05:13:00,
2013-09-09 01:18:00,55.9,50.2,30.04,SSE,157,0.0,3.0,81,0.00,,CLR,0.00,VWS V13.01,2013-09-09 05:18:00,
2013-09-09 01:23:00,55.8,50.1,30.04,SSE,157,1.0,3.0,81,0.00,,CLR,0.00,VWS V13.01,2013-09-09 05:23:00,
2013-09-09 01:28:00,55.9,50.2,30.04,SE,138,0.0,3.0,81,0.00,,CLR,0.00,VWS V13.01,2013-09-09 05:28:00,
2013-09-09 01:33:00,55.9,50.2,30.04,SSE,158,2.0,3.0,81,0.00,,CLR,0.00,VWS V13.01,2013-09-09 05:33:00,
2013-09-09 01:38:00,55.8,50.1,30.04,SSE,150,0.0,3.0,81,0.00,,CLR,0.00,VWS V13.01,2013-09-09 05:38:00,
2013-09-09 01:43:00,55.6,49.9,30.04,SSE,156,0.0,3.0,81,0.00,,CLR,0.00,VWS V13.01,2013-09-09 05:43:00,
2013-09-09 01:48:00,55.5,50.1,30.04,SSE,156,0.0,3.0,82,0.00,,CLR,0.00,VWS V13.01,2013-09-09 05:48:00,
2013-09-09 01:53:00,55.5,50.1,30.04,SSE,153,0.0,3.0,82,0.00,,CLR,0.00,VWS V13.01,2013-09-09 05:53:00,
2013-09-09 01:58:00,55.4,50.0,30.04,SSE,155,0.0,3.0,82,0.00,,CLR,0.00,VWS V13.01,2013-09-09 05:58:00,
2013-09-09 02:03:00,55.3,49.9,30.04,SE,142,0.0,4.0,82,0.00,,CLR,0.00,VWS V13.01,2013-09-09 06:03:00,
2013-09-09 02:09:00,55.3,50.2,30.03,SSE,150,0.0,4.0,83,0.00,,CLR,0.00,VWS V13.01,2013-09-09 06:09:00,
2013-09-09 02:14:00,55.2,50.1,30.03,SSE,153,5.0,5.0,83,0.00,,CLR,0.00,VWS V13.01,2013-09-09 06:14:00,
2013-09-09 02:19:00,55.1,50.0,30.03,SSE,157,0.0,5.0,83,0.00,,CLR,0.00,VWS V13.01,2013-09-09 06:19:00,
2013-09-09 02:24:00,55.1,50.0,30.03,SSE,155,2.0,5.0,83,0.00,,CLR,0.00,VWS V13.01,2013-09-09 06:24:00,
2013-09-09 02:29:00,55.1,50.0,30.03,SSE,157,0.0,5.0,83,0.00,,CLR,0.00,VWS V13.01,2013-09-09 06:29:00,
2013-09-09 02:34:00,55.2,50.1,30.03,SE,146,2.0,3.0,83,0.00,,CLR,0.00,VWS V13.01,2013-09-09 06:34:00,
2013-09-09 02:39:00,55.3,50.2,30.03,South,171,1.0,4.0,83,0.00,,CLR,0.00,VWS V13.01,2013-09-09 06:39:00,
2013-09-09 02:44:00,55.4,50.3,30.03,SE,145,4.0,5.0,83,0.00,,CLR,0.00,VWS V13.01,2013-09-09 06:44:00,
2013-09-09 02:49:00,55.4,50.0,30.03,SSE,158,0.0,6.0,82,0.00,,CLR,0.00,VWS V13.01,2013-09-09 06:49:00,
2013-09-09 02:54:00,55.5,50.1,30.03,South,180,0.0,6.0,82,0.00,,CLR,0.00,VWS V13.01,2013-09-09 06:54:00,
2013-09-09 02:59:00,55.5,50.1,30.03,SE,143,1.0,11.0,82,0.00,,CLR,0.00,VWS V13.01,2013-09-09 06:59:00,
2013-09-09 03:04:00,55.4,50.3,30.03,SSE,154,0.0,2.0,83,0.00,,CLR,0.00,VWS V13.01,2013-09-09 07:04:00,
2013-09-09 03:09:00,55.3,50.2,30.03,SE,138,0.0,4.0,83,0.00,,CLR,0.00,VWS V13.01,2013-09-09 07:09:00,
2013-09-09 03:14:00,55.1,50.0,30.03,SSE,150,5.0,7.0,83,0.00,,CLR,0.00,VWS V13.01,2013-09-09 07:14:00,
2013-09-09 03:19:00,55.1,50.0,30.03,South,178,0.0,7.0,83,0.00,,CLR,0.00,VWS V13.01,2013-09-09 07:19:00,
2013-09-09 03:24:00,55.1,50.0,30.03,SSE,154,0.0,7.0,83,0.00,,CLR,0.00,VWS V13.01,2013-09-09 07:24:00,
2013-09-09 03:29:00,55.0,49.9,30.03,SE,141,1.0,7.0,83,0.00,,CLR,0.00,VWS V13.01,2013-09-09 07:29:00,
2013-09-09 03:34:00,54.9,50.2,30.03,SE,131,0.0,3.0,84,0.00,,CLR,0.00,VWS V13.01,2013-09-09 07:34:00,
2013-09-09 03:39:00,54.8,50.1,30.03,SSE,162,0.0,3.0,84,0.00,,CLR,0.00,VWS V13.01,2013-09-09 07:39:00,
2013-09-09 03:44:00,54.7,50.0,30.03,SSE,150,0.0,5.0,84,0.00,,CLR,0.00,VWS V13.01,2013-09-09 07:44:00,
2013-09-09 03:49:00,54.7,50.0,30.04,SE,135,0.0,5.0,84,0.00,,CLR,0.00,VWS V13.01,2013-09-09 07:49:00,
2013-09-09 03:54:00,54.6,49.9,30.03,SE,136,0.0,5.0,84,0.00,,CLR,0.00,VWS V13.01,2013-09-09 07:54:00,
2013-09-09 03:59:00,54.6,49.9,30.03,SSE,164,0.0,5.0,84,0.00,,CLR,0.00,VWS V13.01,2013-09-09 07:59:00,
2013-09-09 04:04:00,54.6,49.9,30.03,SSE,163,0.0,1.0,84,0.00,,CLR,0.00,VWS V13.01,2013-09-09 08:04:00,
2013-09-09 04:09:00,54.6,49.9,30.03,SSE,163,0.0,1.0,84,0.00,,CLR,0.00,VWS V13.01,2013-09-09 08:09:00,
2013-09-09 04:14:00,54.6,49.9,30.03,SSE,165,1.0,4.0,84,0.00,,CLR,0.00,VWS V13.01,2013-09-09 08:14:00,
2013-09-09 04:19:00,54.8,50.1,30.03,SE,145,1.0,5.0,84,0.00,,CLR,0.00,VWS V13.01,2013-09-09 08:19:00,
2013-09-09 04:24:00,55.0,49.9,30.04,SSE,155,0.0,5.0,83,0.00,,CLR,0.00,VWS V13.01,2013-09-09 08:24:00,
2013-09-09 04:29:00,55.1,50.0,30.04,SSE,158,0.0,5.0,83,0.00,,CLR,0.00,VWS V13.01,2013-09-09 08:29:00,
2013-09-09 04:34:00,55.2,50.1,30.04,SSE,161,0.0,6.0,83,0.00,,CLR,0.00,VWS V13.01,2013-09-09 08:34:00,
2013-09-09 04:39:00,55.1,50.0,30.04,SSE,161,0.0,6.0,83,0.00,,CLR,0.00,VWS V13.01,2013-09-09 08:39:00,
2013-09-09 04:44:00,55.0,49.9,30.03,SSE,149,0.0,6.0,83,0.00,,CLR,0.00,VWS V13.01,2013-09-09 08:44:00,
2013-09-09 04:49:00,54.8,49.7,30.03,SSE,166,0.0,6.0,83,0.00,,CLR,0.00,VWS V13.01,2013-09-09 08:49:00,
2013-09-09 04:54:00,54.8,49.7,30.03,South,180,0.0,6.0,83,0.00,,CLR,0.00,VWS V13.01,2013-09-09 08:54:00,
2013-09-09 04:59:00,54.6,49.9,30.03,SE,140,0.0,6.0,84,0.00,,CLR,0.00,VWS V13.01,2013-09-09 08:59:00,
2013-09-09 05:04:00,54.5,49.5,30.04,SE,138,0.0,4.0,83,0.00,,CLR,0.00,VWS V13.01,2013-09-09 09:04:00,
2013-09-09 05:09:00,54.4,49.7,30.04,South,183,2.0,4.0,84,0.00,,CLR,0.00,VWS V13.01,2013-09-09 09:09:00,
2013-09-09 05:14:00,54.3,49.6,30.05,SSE,152,0.0,6.0,84,0.00,,CLR,0.00,VWS V13.01,2013-09-09 09:14:00,
2013-09-09 05:19:00,54.2,49.5,30.05,SSE,152,0.0,6.0,84,0.00,,CLR,0.00,VWS V13.01,2013-09-09 09:19:00,
2013-09-09 05:24:00,54.1,49.4,30.04,SSE,151,0.0,6.0,84,0.00,,CLR,0.00,VWS V13.01,2013-09-09 09:24:00,
2013-09-09 05:29:00,54.0,49.6,30.04,SSE,148,0.0,6.0,85,0.00,,CLR,0.00,VWS V13.01,2013-09-09 09:29:00,
2013-09-09 05:34:00,53.9,49.5,30.05,SSE,148,3.0,3.0,85,0.00,,CLR,0.00,VWS V13.01,2013-09-09 09:34:00,
2013-09-09 05:40:00,54.0,49.6,30.04,SSE,161,0.0,4.0,85,0.00,,CLR,0.00,VWS V13.01,2013-09-09 09:40:00,
2013-09-09 05:45:00,54.0,49.6,30.05,SSE,159,1.0,4.0,85,0.00,,CLR,0.00,VWS V13.01,2013-09-09 09:45:00,
2013-09-09 05:50:00,54.1,49.7,30.05,SSE,159,0.0,4.0,85,0.00,,CLR,0.00,VWS V13.01,2013-09-09 09:50:00,
2013-09-09 05:55:00,54.1,49.7,30.04,SSE,157,2.0,4.0,85,0.00,,CLR,0.00,VWS V13.01,2013-09-09 09:55:00,
2013-09-09 06:00:00,54.1,49.4,30.04,SSE,148,0.0,6.0,84,0.00,,CLR,0.00,VWS V13.01,2013-09-09 10:00:00,
2013-09-09 06:05:00,54.2,49.5,30.04,SSE,161,0.0,7.0,84,0.00,,CLR,0.00,VWS V13.01,2013-09-09 10:05:00,
2013-09-09 06:10:00,54.3,49.6,30.04,SE,142,0.0,7.0,84,0.00,,CLR,0.00,VWS V13.01,2013-09-09 10:10:00,
2013-09-09 06:15:00,54.3,49.6,30.04,ESE,106,2.0,7.0,84,0.00,,CLR,0.00,VWS V13.01,2013-09-09 10:15:00,
2013-09-09 06:20:00,54.4,49.7,30.04,SSE,153,1.0,7.0,84,0.00,,CLR,0.00,VWS V13.01,2013-09-09 10:20:00,
2013-09-09 06:25:00,54.3,49.6,30.05,SSE,150,0.0,7.0,84,0.00,,CLR,0.00,VWS V13.01,2013-09-09 10:25:00,
2013-09-09 06:30:00,54.3,49.6,30.05,SSE,148,0.0,7.0,84,0.00,,CLR,0.00,VWS V13.01,2013-09-09 10:30:00,
2013-09-09 06:35:00,54.1,49.4,30.04,SSE,148,0.0,1.0,84,0.00,,CLR,0.00,VWS V13.01,2013-09-09 10:35:00,
2013-09-09 06:40:00,53.9,49.2,30.04,ESE,121,0.0,3.0,84,0.00,,CLR,0.00,VWS V13.01,2013-09-09 10:40:00,
2013-09-09 06:45:00,53.9,49.5,30.04,SSE,155,0.0,3.0,85,0.00,,CLR,0.00,VWS V13.01,2013-09-09 10:45:00,
2013-09-09 06:50:00,53.9,49.5,30.04,SSE,148,0.0,4.0,85,0.00,,CLR,0.00,VWS V13.01,2013-09-09 10:50:00,
2013-09-09 06:55:00,53.9,49.5,30.04,SSE,163,0.0,4.0,85,0.00,,CLR,0.00,VWS V13.01,2013-09-09 10:55:00,
2013-09-09 07:00:00,53.9,49.5,30.04,SE,134,0.0,5.0,85,0.00,,CLR,0.00,VWS V13.01,2013-09-09 11:00:00,
2013-09-09 07:05:00,53.9,49.5,30.04,SSE,158,0.0,3.0,85,0.00,,CLR,0.00,VWS V13.01,2013-09-09 11:05:00,
2013-09-09 07:10:00,53.9,49.5,30.04,SSE,150,0.0,5.0,85,0.00,,CLR,0.00,VWS V13.01,2013-09-09 11:10:00,
2013-09-09 07:15:00,54.0,49.6,30.04,SE,146,1.0,5.0,85,0.00,,CLR,0.00,VWS V13.01,2013-09-09 11:15:00,
2013-09-09 07:20:00,54.0,49.3,30.04,SE,142,0.0,5.0,84,0.00,,CLR,0.00,VWS V13.01,2013-09-09 11:20:00,
2013-09-09 07:25:00,54.1,49.4,30.04,SSE,150,3.0,5.0,84,0.00,,CLR,0.00,VWS V13.01,2013-09-09 11:25:00,
2013-09-09 07:30:00,54.1,49.4,30.04,SE,130,0.0,6.0,84,0.00,,CLR,0.00,VWS V13.01,2013-09-09 11:30:00,
2013-09-09 07:35:00,54.2,49.8,30.04,SSE,152,0.0,7.0,85,0.00,,CLR,0.00,VWS V13.01,2013-09-09 11:35:00,
2013-09-09 07:40:00,54.2,49.5,30.04,SE,128,0.0,8.0,84,0.00,,CLR,0.00,VWS V13.01,2013-09-09 11:40:00,
2013-09-09 07:45:00,54.4,50.0,30.04,SE,132,0.0,8.0,85,0.00,,CLR,0.00,VWS V13.01,2013-09-09 11:45:00,
2013-09-09 07:50:00,54.5,50.1,30.04,ESE,123,2.0,9.0,85,0.00,,CLR,0.00,VWS V13.01,2013-09-09 11:50:00,
2013-09-09 07:55:00,54.8,50.1,30.04,SSE,159,0.0,9.0,84,0.00,,CLR,0.00,VWS V13.01,2013-09-09 11:55:00,
2013-09-09 08:00:00,54.9,50.2,30.05,SSE,155,0.0,9.0,84,0.00,,CLR,0.00,VWS V13.01,2013-09-09 12:00:00,
2013-09-09 08:05:00,55.1,50.4,30.05,SSE,148,6.0,9.0,84,0.00,,CLR,0.00,VWS V13.01,2013-09-09 12:05:00,
2013-09-09 08:10:00,55.3,50.6,30.05,SE,145,0.0,9.0,84,0.00,,CLR,0.00,VWS V13.01,2013-09-09 12:10:00,
2013-09-09 08:16:00,55.5,50.8,30.05,SSE,165,1.0,9.0,84,0.00,,CLR,0.00,VWS V13.01,2013-09-09 12:16:00,
2013-09-09 08:21:00,55.7,51.0,30.05,SE,138,1.0,9.0,84,0.00,,CLR,0.00,VWS V13.01,2013-09-09 12:21:00,
2013-09-09 08:26:00,55.8,50.7,30.05,SE,138,0.0,9.0,83,0.00,,CLR,0.00,VWS V13.01,2013-09-09 12:26:00,
2013-09-09 08:31:00,55.9,50.8,30.05,SSE,156,1.0,2.0,83,0.00,,CLR,0.00,VWS V13.01,2013-09-09 12:31:00,
2013-09-09 08:36:00,56.0,50.9,30.04,SE,130,2.0,6.0,83,0.00,,CLR,0.00,VWS V13.01,2013-09-09 12:36:00,
2013-09-09 08:41:00,56.0,50.9,30.04,SSE,153,2.0,6.0,83,0.00,,CLR,0.00,VWS V13.01,2013-09-09 12:41:00,
2013-09-09 08:46:00,56.1,51.3,30.04,SE,139,4.0,6.0,84,0.00,,CLR,0.00,VWS V13.01,2013-09-09 12:46:00,
2013-09-09 08:51:00,56.3,51.5,30.05,SE,146,0.0,6.0,84,0.00,,CLR,0.00,VWS V13.01,2013-09-09 12:51:00,
2013-09-09 08:56:00,56.6,51.8,30.04,SSE,153,0.0,7.0,84,0.00,,CLR,0.00,VWS V13.01,2013-09-09 12:56:00,
2013-09-09 09:01:00,56.9,52.1,30.04,SE,131,0.0,0.0,84,0.00,,CLR,0.00,VWS V13.01,2013-09-09 13:01:00,
2013-09-09 09:06:00,57.3,52.2,30.04,SSE,164,1.0,6.0,83,0.00,,CLR,0.00,VWS V13.01,2013-09-09 13:06:00,
2013-09-09 09:11:00,57.6,52.5,30.04,SSE,150,0.0,6.0,83,0.00,,CLR,0.00,VWS V13.01,2013-09-09 13:11:00,
2013-09-09 09:16:00,58.1,53.0,30.05,SE,142,0.0,6.0,83,0.00,,CLR,0.00,VWS V13.01,2013-09-09 13:16:00,
2013-09-09 09:21:00,58.7,53.6,30.04,SSE,150,0.0,9.0,83,0.00,,CLR,0.00,VWS V13.01,2013-09-09 13:21:00,
2013-09-09 09:26:00,59.3,54.2,30.04,SSE,147,0.0,9.0,83,0.00,,CLR,0.00,VWS V13.01,2013-09-09 13:26:00,
2013-09-09 09:31:00,60.1,54.6,30.04,SSE,148,0.0,1.0,82,0.00,,CLR,0.00,VWS V13.01,2013-09-09 13:31:00,
2013-09-09 09:36:00,60.7,55.2,30.04,SSE,153,0.0,3.0,82,0.00,,CLR,0.00,VWS V13.01,2013-09-09 13:36:00,
2013-09-09 09:41:00,61.1,55.6,30.04,SSE,159,1.0,4.0,82,0.00,,CLR,0.00,VWS V13.01,2013-09-09 13:41:00,
2013-09-09 09:46:00,61.8,55.9,30.04,SSE,157,2.0,8.0,81,0.00,,CLR,0.00,VWS V13.01,2013-09-09 13:46:00,
2013-09-09 09:51:00,62.4,56.2,30.04,SE,138,0.0,8.0,80,0.00,,CLR,0.00,VWS V13.01,2013-09-09 13:51:00,
2013-09-09 09:56:00,62.9,57.0,30.04,ESE,119,0.0,8.0,81,0.00,,CLR,0.00,VWS V13.01,2013-09-09 13:56:00,
2013-09-09 10:01:00,63.3,56.7,30.04,SSE,156,0.0,1.0,79,0.00,,CLR,0.00,VWS V13.01,2013-09-09 14:01:00,
2013-09-09 10:06:00,63.5,56.9,30.04,SSE,162,0.0,4.0,79,0.00,,CLR,0.00,VWS V13.01,2013-09-09 14:06:00,
2013-09-09 10:11:00,63.6,57.3,30.04,SSE,154,0.0,4.0,80,0.00,,CLR,0.00,VWS V13.01,2013-09-09 14:11:00,
2013-09-09 10:16:00,64.3,58.7,30.03,SE,142,1.0,4.0,82,0.00,,CLR,0.00,VWS V13.01,2013-09-09 14:16:00,
2013-09-09 10:21:00,65.1,59.1,30.03,SE,146,0.0,4.0,81,0.00,,CLR,0.00,VWS V13.01,2013-09-09 14:21:00,
2013-09-09 10:26:00,65.6,58.9,30.03,SE,134,0.0,4.0,79,0.00,,CLR,0.00,VWS V13.01,2013-09-09 14:26:00,
2013-09-09 10:31:00,65.7,59.0,30.03,SE,127,0.0,1.0,79,0.00,,CLR,0.00,VWS V13.01,2013-09-09 14:31:00,
2013-09-09 10:36:00,65.6,58.9,30.03,SE,130,0.0,3.0,79,0.00,,CLR,0.00,VWS V13.01,2013-09-09 14:36:00,
2013-09-09 10:41:00,65.7,59.4,30.03,SE,137,0.0,4.0,80,0.00,,CLR,0.00,VWS V13.01,2013-09-09 14:41:00,
2013-09-09 10:46:00,65.8,59.5,30.03,SE,133,0.0,6.0,80,0.00,,CLR,0.00,VWS V13.01,2013-09-09 14:46:00,
2013-09-09 10:51:00,65.8,59.5,30.03,SE,136,0.0,6.0,80,0.00,,CLR,0.00,VWS V13.01,2013-09-09 14:51:00,
2013-09-09 10:56:00,65.8,59.5,30.02,SE,137,0.0,6.0,80,0.00,,CLR,0.00,VWS V13.01,2013-09-09 14:56:00,
2013-09-09 11:01:00,65.9,59.9,30.02,SE,137,0.0,1.0,81,0.00,,CLR,0.00,VWS V13.01,2013-09-09 15:01:00,
2013-09-09 11:06:00,66.0,59.7,30.02,SE,137,0.0,2.0,80,0.00,,CLR,0.00,VWS V13.01,2013-09-09 15:06:00,
2013-09-09 11:12:00,66.2,59.9,30.02,South,170,1.0,4.0,80,0.00,,CLR,0.00,VWS V13.01,2013-09-09 15:12:00,
2013-09-09 11:17:00,66.7,60.3,30.02,SE,134,0.0,5.0,80,0.00,,CLR,0.00,VWS V13.01,2013-09-09 15:17:00,
2013-09-09 11:22:00,67.1,60.7,30.01,SE,134,0.0,5.0,80,0.00,,CLR,0.00,VWS V13.01,2013-09-09 15:22:00,
2013-09-09 11:27:00,67.4,60.7,30.01,SSE,152,0.0,5.0,79,0.00,,CLR,0.00,VWS V13.01,2013-09-09 15:27:00,
2013-09-09 11:32:00,67.4,61.0,30.01,ESE,121,1.0,1.0,80,0.00,,CLR,0.00,VWS V13.01,2013-09-09 15:32:00,
2013-09-09 11:37:00,67.6,61.2,30.01,ESE,123,1.0,2.0,80,0.00,,CLR,0.00,VWS V13.01,2013-09-09 15:37:00,
2013-09-09 11:42:00,67.9,61.2,30.01,SE,129,1.0,3.0,79,0.00,,CLR,0.00,VWS V13.01,2013-09-09 15:42:00,
2013-09-09 11:47:00,68.3,62.2,30.01,SE,127,0.0,3.0,81,0.00,,CLR,0.00,VWS V13.01,2013-09-09 15:47:00,
2013-09-09 11:52:00,68.9,62.5,30.01,SE,127,0.0,3.0,80,0.00,,CLR,0.00,VWS V13.01,2013-09-09 15:52:00,
2013-09-09 11:57:00,69.5,62.3,30.01,SSW,205,0.0,3.0,78,0.00,,CLR,0.00,VWS V13.01,2013-09-09 15:57:00,
2013-09-09 12:02:00,70.0,62.5,30.01,SSW,213,0.0,1.0,77,0.00,,FEW041,0.00,VWS V13.01,2013-09-09 16:02:00,
2013-09-09 12:07:00,70.6,63.8,30.01,ESE,122,1.0,3.0,79,0.00,,FEW041,0.00,VWS V13.01,2013-09-09 16:07:00,
2013-09-09 12:12:00,71.0,63.8,30.01,SE,130,0.0,4.0,78,0.00,,FEW041,0.00,VWS V13.01,2013-09-09 16:12:00,
2013-09-09 12:17:00,71.0,63.4,30.01,SE,126,1.0,4.0,77,0.00,,FEW041,0.00,VWS V13.01,2013-09-09 16:17:00,
2013-09-09 12:22:00,70.9,63.7,30.00,SE,126,0.0,4.0,78,0.00,,FEW041,0.00,VWS V13.01,2013-09-09 16:22:00,
2013-09-09 12:27:00,71.1,64.3,30.00,SE,134,1.0,6.0,79,0.00,,FEW041,0.00,VWS V13.01,2013-09-09 16:27:00,
2013-09-09 12:32:00,71.7,64.5,30.00,SSE,159,1.0,5.0,78,0.00,,FEW041,0.00,VWS V13.01,2013-09-09 16:32:00,
2013-09-09 12:37:00,72.3,65.1,30.00,ESE,123,0.0,5.0,78,0.00,,FEW041,0.00,VWS V13.01,2013-09-09 16:37:00,
2013-09-09 12:42:00,72.7,65.1,30.00,SSW,192,0.0,5.0,77,0.00,,FEW041,0.00,VWS V13.01,2013-09-09 16:42:00,
2013-09-09 12:47:00,73.1,65.8,30.01,SSW,192,0.0,5.0,78,0.00,,FEW041,0.00,VWS V13.01,2013-09-09 16:47:00,
2013-09-09 12:52:00,73.3,65.7,30.01,SSW,192,0.0,5.0,77,0.00,,FEW041,0.00,VWS V13.01,2013-09-09 16:52:00,
2013-09-09 12:57:00,73.4,65.8,30.01,SSW,192,0.0,5.0,77,0.00,,FEW041,0.00,VWS V13.01,2013-09-09 16:57:00,
2013-09-09 13:02:00,73.4,66.1,30.00,SSW,193,0.0,1.0,78,0.00,,SCT120,0.00,VWS V13.01,2013-09-09 17:02:00,
2013-09-09 13:07:00,73.8,66.9,30.00,SSW,193,0.0,1.0,79,0.00,,SCT120,0.00,VWS V13.01,2013-09-09 17:07:00,
2013-09-09 13:12:00,74.1,66.4,30.00,SSW,193,0.0,1.0,77,0.00,,SCT120,0.00,VWS V13.01,2013-09-09 17:12:00,
2013-09-09 13:17:00,74.2,66.5,30.00,SSW,193,0.0,1.0,77,0.00,,SCT120,0.00,VWS V13.01,2013-09-09 17:17:00,
2013-09-09 13:22:00,74.4,67.1,30.00,ESE,107,0.0,3.0,78,0.00,,SCT120,0.00,VWS V13.01,2013-09-09 17:22:00,
2013-09-09 13:27:00,74.6,67.7,30.00,ESE,107,0.0,3.0,79,0.00,,SCT120,0.00,VWS V13.01,2013-09-09 17:27:00,
2013-09-09 13:32:00,74.8,67.1,29.99,ESE,108,0.0,1.0,77,0.00,,SCT120,0.00,VWS V13.01,2013-09-09 17:32:00,
2013-09-09 13:37:00,74.9,67.6,29.99,ESE,108,0.0,1.0,78,0.00,,SCT120,0.00,VWS V13.01,2013-09-09 17:37:00,
2013-09-09 13:42:00,75.0,67.3,29.99,ESE,108,0.0,1.0,77,0.00,,SCT120,0.00,VWS V13.01,2013-09-09 17:42:00,
2013-09-09 13:47:00,75.3,68.0,29.98,ESE,108,0.0,1.0,78,0.00,,SCT120,0.00,VWS V13.01,2013-09-09 17:47:00,
2013-09-09 13:52:00,75.8,68.1,29.98,ESE,109,2.0,3.0,77,0.00,,SCT120,0.00,VWS V13.01,2013-09-09 17:52:00,
2013-09-09 13:57:00,76.2,68.8,29.98,ESE,107,0.0,3.0,78,0.00,,SCT120,0.00,VWS V13.01,2013-09-09 17:57:00,
2013-09-09 14:02:00,76.3,68.6,29.99,NW,320,0.0,0.0,77,0.00,,FEW055,0.00,VWS V13.01,2013-09-09 18:02:00,
2013-09-09 14:07:00,76.4,68.7,29.98,NW,320,1.0,3.0,77,0.00,,FEW055,0.00,VWS V13.01,2013-09-09 18:07:00,
2013-09-09 14:12:00,76.3,68.6,29.98,NW,319,0.0,3.0,77,0.00,,FEW055,0.00,VWS V13.01,2013-09-09 18:12:00,
2013-09-09 14:17:00,76.1,68.0,29.98,NW,320,0.0,3.0,76,0.00,,FEW055,0.00,VWS V13.01,2013-09-09 18:17:00,
2013-09-09 14:22:00,76.0,68.3,29.98,NW,320,0.0,3.0,77,0.00,,FEW055,0.00,VWS V13.01,2013-09-09 18:22:00,
2013-09-09 14:27:00,75.9,68.6,29.98,NW,320,1.0,3.0,78,0.00,,FEW055,0.00,VWS V13.01,2013-09-09 18:27:00,
2013-09-09 14:32:00,75.8,68.5,29.97,NW,319,0.0,0.0,78,0.00,,FEW055,0.00,VWS V13.01,2013-09-09 18:32:00,
2013-09-09 14:37:00,75.8,68.5,29.97,NW,320,0.0,3.0,78,0.00,,FEW055,0.00,VWS V13.01,2013-09-09 18:37:00,
2013-09-09 14:42:00,75.8,68.5,29.97,NW,320,0.0,3.0,78,0.00,,FEW055,0.00,VWS V13.01,2013-09-09 18:42:00,
2013-09-09 14:47:00,75.9,68.9,29.97,East,88,1.0,3.0,79,0.00,,FEW055,0.00,VWS V13.01,2013-09-09 18:47:00,
2013-09-09 14:52:00,75.8,68.5,29.96,East,88,0.0,3.0,78,0.00,,FEW055,0.00,VWS V13.01,2013-09-09 18:52:00,
2013-09-09 14:57:00,75.9,68.6,29.96,East,88,0.0,3.0,78,0.00,,FEW055,0.00,VWS V13.01,2013-09-09 18:57:00,
2013-09-09 15:02:00,75.8,68.8,29.96,East,99,2.0,3.0,79,0.00,,BKN044,0.00,VWS V13.01,2013-09-09 19:02:00,
2013-09-09 15:08:00,75.8,68.8,29.96,East,99,0.0,3.0,79,0.00,,BKN044,0.00,VWS V13.01,2013-09-09 19:08:00,
2013-09-09 15:13:00,75.8,69.2,29.96,East,99,0.0,3.0,80,0.00,,BKN044,0.00,VWS V13.01,2013-09-09 19:13:00,
2013-09-09 15:18:00,75.7,68.7,29.96,East,99,1.0,3.0,79,0.00,,BKN044,0.00,VWS V13.01,2013-09-09 19:18:00,
2013-09-09 15:23:00,75.7,69.1,29.96,ESE,103,0.0,3.0,80,0.00,,BKN044,0.00,VWS V13.01,2013-09-09 19:23:00,
2013-09-09 15:28:00,75.5,68.9,29.96,ESE,103,0.0,3.0,80,0.00,,BKN044,0.00,VWS V13.01,2013-09-09 19:28:00,
2013-09-09 15:33:00,75.4,69.2,29.96,ESE,103,0.0,0.0,81,0.00,,BKN044,0.00,VWS V13.01,2013-09-09 19:33:00,
2013-09-09 15:38:00,75.3,68.7,29.95,ESE,103,0.0,1.0,80,0.00,,BKN044,0.00,VWS V13.01,2013-09-09 19:38:00,
2013-09-09 15:43:00,75.2,69.0,29.96,ESE,103,0.0,2.0,81,0.00,,BKN044,0.00,VWS V13.01,2013-09-09 19:43:00,
2013-09-09 15:48:00,75.3,69.1,29.95,ESE,103,0.0,2.0,81,0.00,,BKN044,0.00,VWS V13.01,2013-09-09 19:48:00,
2013-09-09 15:53:00,75.4,69.2,29.95,ESE,103,0.0,2.0,81,0.00,,BKN044,0.00,VWS V13.01,2013-09-09 19:53:00,
2013-09-09 15:58:00,75.3,68.7,29.95,ESE,103,0.0,2.0,80,0.00,,BKN044,0.00,VWS V13.01,2013-09-09 19:58:00,
2013-09-09 16:03:00,75.0,68.8,29.95,ESE,103,1.0,1.0,81,0.00,,BKN049,0.00,VWS V13.01,2013-09-09 20:03:00,
2013-09-09 16:08:00,74.6,68.4,29.95,ESE,105,1.0,3.0,81,0.00,,BKN049,0.00,VWS V13.01,2013-09-09 20:08:00,
2013-09-09 16:13:00,74.4,68.6,29.95,ESE,105,0.0,3.0,82,0.00,,BKN049,0.00,VWS V13.01,2013-09-09 20:13:00,
2013-09-09 16:18:00,74.3,68.4,29.95,ESE,105,0.0,3.0,82,0.00,,BKN049,0.00,VWS V13.01,2013-09-09 20:18:00,
2013-09-09 16:23:00,74.0,68.5,29.95,ESE,105,0.0,3.0,83,0.00,,BKN049,0.00,VWS V13.01,2013-09-09 20:23:00,
2013-09-09 16:28:00,73.7,68.6,29.95,ESE,105,0.0,3.0,84,0.01,,BKN049,0.03,VWS V13.01,2013-09-09 20:28:00,
2013-09-09 16:33:00,73.0,68.6,29.96,ESE,105,0.0,0.0,86,0.08,,BKN049,0.08,VWS V13.01,2013-09-09 20:33:00,
2013-09-09 16:38:00,72.3,68.6,29.95,ESE,105,0.0,1.0,88,0.10,,BKN049,0.11,VWS V13.01,2013-09-09 20:38:00,
2013-09-09 16:43:00,71.7,68.3,29.95,ESE,105,0.0,1.0,89,0.11,,BKN049,0.11,VWS V13.01,2013-09-09 20:43:00,
2013-09-09 16:48:00,71.3,68.5,29.95,ESE,105,0.0,1.0,91,0.12,, +RA,0.12,VWS V13.01,2013-09-09 20:48:00,
2013-09-09 16:53:00,70.9,68.5,29.95,ESE,105,0.0,1.0,92,0.13,, +RA,0.13,VWS V13.01,2013-09-09 20:53:00,
2013-09-09 16:58:00,70.7,68.6,29.96,ESE,105,0.0,1.0,93,0.16,, +RA,0.18,VWS V13.01,2013-09-09 20:58:00,
2013-09-09 17:03:00,70.4,68.3,29.95,ESE,105,1.0,1.0,93,0.23,,-RA,0.23,VWS V13.01,2013-09-09 21:03:00,
2013-09-09 17:08:00,70.1,68.3,29.95,SSE,155,0.0,3.0,94,0.25,,-RA,0.25,VWS V13.01,2013-09-09 21:08:00,
2013-09-09 17:13:00,69.8,68.0,29.96,SSE,155,0.0,3.0,94,0.28,,-RA,0.28,VWS V13.01,2013-09-09 21:13:00,
2013-09-09 17:18:00,69.6,68.1,29.95,SE,139,0.0,3.0,95,0.28,,-RA,0.28,VWS V13.01,2013-09-09 21:18:00,
2013-09-09 17:23:00,69.4,67.9,29.95,SE,139,1.0,3.0,95,0.28,,-RA,0.28,VWS V13.01,2013-09-09 21:23:00,
2013-09-09 17:28:00,69.2,68.0,29.96,SE,139,0.0,3.0,96,0.28,,-RA,0.28,VWS V13.01,2013-09-09 21:28:00,
2013-09-09 17:33:00,69.2,68.0,29.96,SE,139,0.0,1.0,96,0.21,,-RA,0.28,VWS V13.01,2013-09-09 21:33:00,
2013-09-09 17:38:00,69.3,68.1,29.95,SE,139,1.0,1.0,96,0.21,,-RA,0.28,VWS V13.01,2013-09-09 21:38:00,
2013-09-09 17:43:00,69.4,68.2,29.95,SE,139,0.0,2.0,96,0.21,,-RA,0.28,VWS V13.01,2013-09-09 21:43:00,
2013-09-09 17:48:00,69.5,68.3,29.95,SE,144,0.0,3.0,96,0.21,,-RA,0.28,VWS V13.01,2013-09-09 21:48:00,
2013-09-09 17:53:00,69.4,68.2,29.95,SE,144,0.0,3.0,96,0.21,,-RA,0.28,VWS V13.01,2013-09-09 21:53:00,
2013-09-09 17:58:00,69.4,68.5,29.94,SE,137,0.0,4.0,97,0.21,,-RA,0.28,VWS V13.01,2013-09-09 21:58:00,
2013-09-09 18:03:00,69.4,68.5,29.94,SE,143,2.0,2.0,97,0.05,,BKN070,0.28,VWS V13.01,2013-09-09 22:03:00,
2013-09-09 18:08:00,69.3,68.1,29.95,SE,144,0.0,6.0,96,0.05,,BKN070,0.28,VWS V13.01,2013-09-09 22:08:00,
2013-09-09 18:13:00,69.3,68.4,29.94,ESE,109,0.0,6.0,97,0.05,,BKN070,0.28,VWS V13.01,2013-09-09 22:13:00,
2013-09-09 18:18:00,69.3,68.4,29.94,SSE,155,0.0,6.0,97,0.05,,BKN070,0.28,VWS V13.01,2013-09-09 22:18:00,
2013-09-09 18:23:00,69.3,68.4,29.94,SSE,155,0.0,6.0,97,0.05,,BKN070,0.28,VWS V13.01,2013-09-09 22:23:00,
2013-09-09 18:28:00,69.2,68.3,29.94,SSE,157,1.0,6.0,97,0.05,,BKN070,0.28,VWS V13.01,2013-09-09 22:28:00,
2013-09-09 18:33:00,69.1,68.2,29.94,SE,146,2.0,3.0,97,0.00,,BKN070,0.28,VWS V13.01,2013-09-09 22:33:00,
2013-09-09 18:38:00,69.0,68.1,29.94,SE,142,0.0,3.0,97,0.00,,BKN070,0.28,VWS V13.01,2013-09-09 22:38:00,
2013-09-09 18:43:00,69.0,68.1,29.94,SE,142,0.0,3.0,97,0.00,,BKN070,0.28,VWS V13.01,2013-09-09 22:43:00,
2013-09-09 18:48:00,68.9,68.0,29.94,SE,141,0.0,3.0,97,0.00,,BKN070,0.28,VWS V13.01,2013-09-09 22:48:00,
2013-09-09 18:53:00,68.9,68.0,29.94,SE,140,1.0,3.0,97,0.00,,BKN070,0.28,VWS V13.01,2013-09-09 22:53:00,
2013-09-09 18:58:00,68.9,68.0,29.94,SE,142,0.0,3.0,97,0.00,,BKN070,0.28,VWS V13.01,2013-09-09 22:58:00,
2013-09-09 19:03:00,68.8,67.9,29.93,SE,146,0.0,4.0,97,0.00,,CLR,0.28,VWS V13.01,2013-09-09 23:03:00,
2013-09-09 19:08:00,68.7,67.8,29.93,SE,146,0.0,4.0,97,0.00,,CLR,0.28,VWS V13.01,2013-09-09 23:08:00,
2013-09-09 19:13:00,68.6,67.7,29.93,SE,146,0.0,4.0,97,0.00,,CLR,0.28,VWS V13.01,2013-09-09 23:13:00,
2013-09-09 19:18:00,68.6,67.7,29.93,SE,146,0.0,4.0,97,0.00,,CLR,0.28,VWS V13.01,2013-09-09 23:18:00,
2013-09-09 19:23:00,68.5,67.6,29.93,SE,146,1.0,4.0,97,0.00,,CLR,0.28,VWS V13.01,2013-09-09 23:23:00,
2013-09-09 19:28:00,68.4,67.5,29.94,SE,146,0.0,4.0,97,0.00,,CLR,0.28,VWS V13.01,2013-09-09 23:28:00,
2013-09-09 19:33:00,68.3,67.4,29.94,SE,146,0.0,1.0,97,0.00,,CLR,0.28,VWS V13.01,2013-09-09 23:33:00,
2013-09-09 19:38:00,68.3,67.4,29.94,SE,146,0.0,1.0,97,0.00,,CLR,0.28,VWS V13.01,2013-09-09 23:38:00,
2013-09-09 19:44:00,68.2,67.3,29.94,SE,146,0.0,3.0,97,0.00,,CLR,0.28,VWS V13.01,2013-09-09 23:44:00,
2013-09-09 19:49:00,68.1,67.2,29.94,SSE,147,1.0,4.0,97,0.00,,CLR,0.28,VWS V13.01,2013-09-09 23:49:00,
2013-09-09 19:54:00,68.0,67.1,29.94,SSE,150,2.0,6.0,97,0.00,,CLR,0.28,VWS V13.01,2013-09-09 23:54:00,
2013-09-09 19:59:00,68.0,67.1,29.94,SSE,148,0.0,6.0,97,0.00,,CLR,0.28,VWS V13.01,2013-09-09 23:59:00,
2013-09-09 20:04:00,67.9,67.0,29.94,SE,136,0.0,6.0,97,0.00,,SCT100,0.28,VWS V13.01,2013-09-10 00:04:00,
2013-09-09 20:09:00,67.9,67.0,29.94,SSE,155,0.0,6.0,97,0.00,,SCT100,0.28,VWS V13.01,2013-09-10 00:09:00,
2013-09-09 20:14:00,67.9,67.0,29.94,SE,146,0.0,6.0,97,0.00,,SCT100,0.28,VWS V13.01,2013-09-10 00:14:00,
2013-09-09 20:19:00,67.9,67.0,29.94,SE,136,1.0,6.0,97,0.00,,SCT100,0.28,VWS V13.01,2013-09-10 00:19:00,
2013-09-09 20:24:00,67.9,67.0,29.94,SSE,162,0.0,6.0,97,0.00,,SCT100,0.28,VWS V13.01,2013-09-10 00:24:00,
2013-09-09 20:29:00,67.9,67.0,29.93,SSE,150,0.0,6.0,97,0.00,,SCT100,0.28,VWS V13.01,2013-09-10 00:29:00,
2013-09-09 20:34:00,67.9,67.0,29.93,SE,140,0.0,4.0,97,0.00,,SCT100,0.28,VWS V13.01,2013-09-10 00:34:00,
2013-09-09 20:39:00,67.9,67.0,29.94,SE,145,0.0,4.0,97,0.00,,SCT100,0.28,VWS V13.01,2013-09-10 00:39:00,
2013-09-09 20:44:00,67.8,66.9,29.94,SE,130,2.0,4.0,97,0.00,,SCT100,0.28,VWS V13.01,2013-09-10 00:44:00,
2013-09-09 20:49:00,67.8,66.9,29.94,SE,143,1.0,4.0,97,0.00,,SCT100,0.28,VWS V13.01,2013-09-10 00:49:00,
2013-09-09 20:54:00,67.7,66.8,29.94,SE,143,0.0,4.0,97,0.00,,SCT100,0.28,VWS V13.01,2013-09-10 00:54:00,
2013-09-09 20:59:00,67.7,66.8,29.94,SE,140,0.0,4.0,97,0.00,,SCT100,0.28,VWS V13.01,2013-09-10 00:59:00,
2013-09-09 21:04:00,67.7,66.8,29.94,SE,140,0.0,2.0,97,0.00,,CLR,0.28,VWS V13.01,2013-09-10 01:04:00,
2013-09-09 21:09:00,67.8,66.9,29.94,SE,125,1.0,4.0,97,0.00,,CLR,0.28,VWS V13.01,2013-09-10 01:09:00,
2013-09-09 21:14:00,67.8,66.9,29.93,SE,136,2.0,4.0,97,0.00,,CLR,0.28,VWS V13.01,2013-09-10 01:14:00,
2013-09-09 21:19:00,67.9,67.0,29.93,SE,130,0.0,9.0,97,0.00,,CLR,0.28,VWS V13.01,2013-09-10 01:19:00,
2013-09-09 21:24:00,68.0,67.1,29.94,East,98,0.0,9.0,97,0.00,,CLR,0.28,VWS V13.01,2013-09-10 01:24:00,
2013-09-09 21:29:00,68.1,67.2,29.94,SE,146,1.0,9.0,97,0.00,,CLR,0.28,VWS V13.01,2013-09-10 01:29:00,
2013-09-09 21:34:00,68.1,67.2,29.94,SE,146,0.0,1.0,97,0.00,,CLR,0.28,VWS V13.01,2013-09-10 01:34:00,
2013-09-09 21:39:00,68.3,67.4,29.94,SSE,153,1.0,4.0,97,0.00,,CLR,0.28,VWS V13.01,2013-09-10 01:39:00,
2013-09-09 21:44:00,68.4,67.5,29.94,East,89,0.0,4.0,97,0.00,,CLR,0.28,VWS V13.01,2013-09-10 01:44:00,
2013-09-09 21:49:00,68.5,67.6,29.94,SSE,155,0.0,6.0,97,0.00,,CLR,0.28,VWS V13.01,2013-09-10 01:49:00,
2013-09-09 21:54:00,68.6,67.7,29.94,ESE,116,0.0,6.0,97,0.00,,CLR,0.28,VWS V13.01,2013-09-10 01:54:00,
2013-09-09 21:59:00,68.7,67.8,29.94,ESE,120,0.0,6.0,97,0.00,,CLR,0.28,VWS V13.01,2013-09-10 01:59:00,
2013-09-09 22:05:00,68.7,67.8,29.94,SE,125,0.0,2.0,97,0.00,,BKN095,0.28,VWS V13.01,2013-09-10 02:05:00,
2013-09-09 22:10:00,68.7,67.8,29.93,SE,125,1.0,3.0,97,0.00,,BKN095,0.28,VWS V13.01,2013-09-10 02:10:00,
2013-09-09 22:15:00,68.7,67.8,29.93,SE,126,0.0,3.0,97,0.00,,BKN095,0.28,VWS V13.01,2013-09-10 02:15:00,
2013-09-09 22:20:00,68.7,67.8,29.93,SE,134,0.0,3.0,97,0.00,,BKN095,0.28,VWS V13.01,2013-09-10 02:20:00,
2013-09-09 22:25:00,68.8,67.9,29.92,SSE,154,0.0,5.0,97,0.00,,BKN095,0.28,VWS V13.01,2013-09-10 02:25:00,
2013-09-09 22:30:00,68.8,67.9,29.92,SSE,154,0.0,5.0,97,0.00,,BKN095,0.28,VWS V13.01,2013-09-10 02:30:00,
2013-09-09 22:35:00,68.9,68.0,29.92,SSE,155,0.0,3.0,97,0.00,,BKN095,0.28,VWS V13.01,2013-09-10 02:35:00,
2013-09-09 22:40:00,69.0,68.1,29.92,SE,142,1.0,3.0,97,0.00,,BKN095,0.28,VWS V13.01,2013-09-10 02:40:00,
2013-09-09 22:45:00,69.2,68.3,29.92,SSE,149,0.0,3.0,97,0.00,,BKN095,0.28,VWS V13.01,2013-09-10 02:45:00,
2013-09-09 22:50:00,69.4,68.5,29.92,SSE,163,0.0,5.0,97,0.00,,BKN095,0.28,VWS V13.01,2013-09-10 02:50:00,
2013-09-09 22:55:00,69.5,68.6,29.92,SSE,163,0.0,5.0,97,0.00,,BKN095,0.28,VWS V13.01,2013-09-10 02:55:00,
2013-09-09 23:00:00,69.6,68.7,29.92,SSE,162,0.0,5.0,97,0.00,,BKN095,0.28,VWS V13.01,2013-09-10 03:00:00,
2013-09-09 23:05:00,69.6,68.7,29.92,SE,143,1.0,2.0,97,0.00,,CLR,0.28,VWS V13.01,2013-09-10 03:05:00,
2013-09-09 23:10:00,69.7,68.8,29.92,SE,146,0.0,3.0,97,0.00,,CLR,0.28,VWS V13.01,2013-09-10 03:10:00,
2013-09-09 23:15:00,69.7,68.8,29.92,SE,138,0.0,3.0,97,0.00,,CLR,0.28,VWS V13.01,2013-09-10 03:15:00,
2013-09-09 23:20:00,69.9,69.0,29.92,South,171,0.0,6.0,97,0.00,,CLR,0.28,VWS V13.01,2013-09-10 03:20:00,
2013-09-09 23:25:00,70.0,69.1,29.92,SE,140,0.0,6.0,97,0.00,,CLR,0.28,VWS V13.01,2013-09-10 03:25:00,
2013-09-09 23:30:00,70.2,69.3,29.92,SE,139,0.0,6.0,97,0.00,,CLR,0.28,VWS V13.01,2013-09-10 03:30:00,
2013-09-09 23:35:00,70.3,69.1,29.92,SE,139,0.0,3.0,96,0.00,,CLR,0.28,VWS V13.01,2013-09-10 03:35:00,
2013-09-09 23:40:00,70.4,69.2,29.92,SE,139,0.0,3.0,96,0.00,,CLR,0.28,VWS V13.01,2013-09-10 03:40:00,
2013-09-09 23:45:00,70.5,69.3,29.92,SE,139,0.0,3.0,96,0.00,,CLR,0.28,VWS V13.01,2013-09-10 03:45:00,
2013-09-09 23:50:00,70.6,69.4,29.92,SE,138,0.0,4.0,96,0.00,,CLR,0.28,VWS V13.01,2013-09-10 03:50:00,
2013-09-09 23:55:00,70.7,69.5,29.92,SE,137,0.0,4.0,96,0.00,,CLR,0.28,VWS V13.01,2013-09-10 03:55:00,